Location: San Bernardino
(34.1083°N, 117.2898°W)
Time: 05:30:11
(UTC+00:00)

ARGOS - Visible Passes

Search period start: 13 July 2024 00:00
Search period end: 23 July 2024 00:00
Orbit: 820 x 833 km, 98.4° (Epoch: 12 July)

Date Brightness Start Highest point End Pass type
(mag) Time Alt. Az. Time Alt. Az. Time Alt. Az.
14 Jul 4.3 12:12:21 10° NNE 12:17:32 45° E 12:22:39 10° S visible
15 Jul 5.1 11:53:51 10° NE 11:58:32 29° E 12:03:09 10° SSE visible
16 Jul 5.7 11:35:41 10° NE 11:39:28 19° E 11:43:14 10° SE visible
17 Jul 5.9 11:18:22 10° ENE 11:20:22 12° E 11:22:22 10° ESE visible
19 Jul 4.1 12:17:53 10° NNE 12:23:10 52° E 12:28:24 10° S visible
20 Jul 4.8 11:59:18 10° NNE 12:04:11 34° E 12:09:00 10° SSE visible
21 Jul 5.5 11:41:00 10° NE 11:45:08 22° E 11:49:14 10° SE visible
22 Jul 5.8 11:23:16 10° ENE 11:26:03 14° E 11:28:48 10° ESE visible
